| time (UTC) | temp F | wind direction | speed MPH | gust MPH | rain 1hr in | rain 24hr in | rain mn in | humidity % | barometer mb |
| 20260904052141 | 74 | 226 | 0.0 | 1.0 | 0.00 | 0.00 | 0.00 | 95 | 1049.5 |
| 20260904051638 | 74 | 226 | 0.0 | 1.0 | 0.00 | 0.00 | 0.00 | 95 | 1049.6 |
| 20260904051132 | 75 | 230 | 0.0 | 1.0 | 0.00 | 0.00 | 0.00 | 94 | 1049.3 |
| 20260904050628 | 75 | 229 | 1.0 | 1.0 | 0.00 | 0.00 | 0.00 | 94 | 1049.6 |
| 20260904050124 | 75 | 230 | 1.0 | 2.0 | 0.00 | 0.00 | 0.00 | 95 | 1049.5 |
| 20260904045619 | 75 | 233 | 0.0 | 0.0 | 0.00 | 0.29 | 0.29 | 95 | 1049.5 |
| 20260904045114 | 75 | 228 | 0.0 | 0.0 | 0.00 | 0.29 | 0.29 | 95 | 1049.5 |
| 20260904044609 | 75 | 240 | 0.0 | 0.0 | 0.00 | 0.29 | 0.29 | 95 | 1049.6 |
| 20260904044106 | 75 | 226 | 0.0 | 0.0 | 0.00 | 0.29 | 0.29 | 94 | 1049.6 |
| 20260904043602 | 75 | 242 | 0.0 | 0.0 | 0.00 | 0.29 | 0.29 | 94 | 1049.7 |
| 20260904043058 | 75 | 233 | 0.0 | 0.0 | 0.00 | 0.29 | 0.29 | 94 | 1049.5 |
| 20260904042554 | 75 | 224 | 0.0 | 0.0 | 0.00 | 0.29 | 0.29 | 93 | 1049.5 |
| 20260904042053 | 75 | 253 | 0.0 | 1.0 | 0.00 | 0.29 | 0.29 | 93 | 1049.5 |
| 20260904041549 | 75 | 236 | 0.0 | 1.0 | 0.00 | 0.29 | 0.29 | 93 | 1049.6 |
| 20260904041045 | 75 | 223 | 1.0 | 1.0 | 0.00 | 0.29 | 0.29 | 93 | 1049.6 |
| 20260904040545 | 75 | 223 | 0.0 | 0.0 | 0.00 | 0.29 | 0.29 | 93 | 1049.6 |
| 20260904040043 | 75 | 237 | 0.0 | 0.0 | 0.00 | 0.29 | 0.29 | 93 | 1049.6 |
| 20260904035542 | 76 | 238 | 0.0 | 0.0 | 0.00 | 0.29 | 0.29 | 93 | 1049.6 |
| 20260904035036 | 76 | 241 | 0.0 | 0.0 | 0.00 | 0.29 | 0.29 | 93 | 1049.6 |
| 20260904034531 | 76 | 133 | 1.0 | 1.0 | 0.00 | 0.29 | 0.29 | 93 | 1049.6 |
| 20260904034027 | 75 | 192 | 0.0 | 0.0 | 0.00 | 0.29 | 0.29 | 94 | 1049.5 |
| 20260904033523 | 75 | 216 | 0.0 | 0.0 | 0.00 | 0.29 | 0.29 | 94 | 1049.5 |
| 20260904033020 | 75 | 241 | 0.0 | 1.0 | 0.00 | 0.29 | 0.29 | 94 | 1049.6 |
| 20260904032514 | 75 | 199 | 0.0 | 1.0 | 0.00 | 0.29 | 0.29 | 94 | 1049.6 |
| 20260904032014 | 75 | 286 | 1.0 | 1.0 | 0.00 | 0.29 | 0.29 | 94 | 1049.7 |
| 20260904031509 | 75 | 229 | 1.0 | 2.0 | 0.00 | 0.29 | 0.29 | 94 | 1049.6 |
| 20260904031005 | 75 | 261 | 0.0 | 0.0 | 0.00 | 0.29 | 0.29 | 94 | 1049.5 |
| 20260904030500 | 75 | 235 | 0.0 | 1.0 | 0.00 | 0.29 | 0.29 | 94 | 1049.5 |
| 20260904025955 | 75 | 236 | 0.0 | 0.0 | 0.00 | 0.29 | 0.29 | 94 | 1049.4 |
| 20260904025451 | 75 | 278 | 0.0 | 0.0 | 0.00 | 0.29 | 0.29 | 94 | 1049.5 |
| 20260904024951 | 75 | 293 | 1.0 | 1.0 | 0.00 | 0.29 | 0.29 | 94 | 1049.3 |
| 20260904024446 | 75 | 76 | 0.0 | 0.0 | 0.00 | 0.29 | 0.29 | 95 | 1049.5 |
| 20260904023942 | 75 | 76 | 0.0 | 0.0 | 0.00 | 0.29 | 0.29 | 95 | 1049.5 |
| 20260904023438 | 75 | 76 | 0.0 | 0.0 | 0.00 | 0.29 | 0.29 | 95 | 1049.5 |
| 20260904022938 | 75 | 76 | 1.0 | 2.0 | 0.00 | 0.29 | 0.29 | 94 | 1049.7 |
| 20260904022434 | 75 | 76 | 1.0 | 1.0 | 0.00 | 0.29 | 0.29 | 94 | 1049.3 |
| 20260904021930 | 76 | 203 | 0.0 | 1.0 | 0.00 | 0.29 | 0.29 | 93 | 1049.4 |
| 20260904021426 | 76 | 152 | 0.0 | 0.0 | 0.00 | 0.29 | 0.29 | 93 | 1049.6 |
| 20260904020920 | 76 | 233 | 0.0 | 0.0 | 0.00 | 0.29 | 0.29 | 93 | 1049.6 |
| 20260904020416 | 76 | 278 | 0.0 | 0.0 | 0.00 | 0.29 | 0.29 | 92 | 1049.5 |
| 20260904015914 | 77 | 241 | 0.0 | 0.0 | 0.00 | 0.29 | 0.29 | 91 | 1049.3 |
| 20260904015410 | 77 | 200 | 0.0 | 0.0 | 0.00 | 0.29 | 0.29 | 91 | 1049.3 |
| 20260904014908 | 77 | 280 | 0.0 | 0.0 | 0.00 | 0.29 | 0.29 | 91 | 1049.3 |
| 20260904014404 | 77 | 251 | 0.0 | 0.0 | 0.00 | 0.29 | 0.29 | 92 | 1049.3 |
| 20260904013859 | 77 | 236 | 0.0 | 0.0 | 0.00 | 0.29 | 0.29 | 92 | 1049.0 |
| 20260904013355 | 77 | 237 | 0.0 | 0.0 | 0.00 | 0.29 | 0.29 | 92 | 1048.9 |
| 20260904012851 | 77 | 245 | 0.0 | 0.0 | 0.00 | 0.29 | 0.29 | 92 | 1048.9 |
| 20260904012346 | 77 | 240 | 0.0 | 0.0 | 0.00 | 0.29 | 0.29 | 91 | 1049.0 |
| 20260904011845 | 77 | 240 | 0.0 | 0.0 | 0.00 | 0.29 | 0.29 | 91 | 1048.8 |
| 20260904011341 | 78 | 235 | 0.0 | 0.0 | 0.00 | 0.29 | 0.29 | 90 | 1048.8 |
| 20260904010836 | 78 | 253 | 0.0 | 0.0 | 0.00 | 0.29 | 0.29 | 90 | 1049.0 |
| 20260904010332 | 78 | 242 | 0.0 | 0.0 | 0.00 | 0.29 | 0.29 | 89 | 1048.9 |
| 20260904005827 | 78 | 251 | 0.0 | 0.0 | 0.00 | 0.29 | 0.29 | 88 | 1048.9 |
| 20260904005323 | 79 | 249 | 0.0 | 0.0 | 0.00 | 0.29 | 0.29 | 88 | 1048.8 |
| 20260904004817 | 80 | 245 | 0.0 | 1.0 | 0.00 | 0.29 | 0.29 | 86 | 1048.7 |
| 20260904004314 | 80 | 224 | 0.0 | 1.0 | 0.00 | 0.29 | 0.29 | 85 | 1048.6 |
| 20260904003809 | 80 | 226 | 0.0 | 0.0 | 0.00 | 0.29 | 0.29 | 86 | 1048.7 |
| 20260904003305 | 80 | 226 | 0.0 | 0.0 | 0.00 | 0.29 | 0.29 | 85 | 1048.7 |
| 20260904002800 | 80 | 226 | 0.0 | 0.0 | 0.00 | 0.29 | 0.29 | 85 | 1048.7 |
| 20260904002256 | 81 | 207 | 0.0 | 2.0 | 0.00 | 0.29 | 0.29 | 84 | 1048.5 |
| 20260904001755 | 81 | 230 | 0.0 | 1.0 | 0.00 | 0.29 | 0.29 | 83 | 1048.7 |
| 20260904001250 | 81 | 225 | 0.0 | 0.0 | 0.00 | 0.29 | 0.29 | 83 | 1048.6 |
| 20260904000745 | 82 | 223 | 0.0 | 1.0 | 0.00 | 0.29 | 0.29 | 82 | 1048.4 |
| 20260904000241 | 82 | 226 | 0.0 | 0.0 | 0.00 | 0.29 | 0.29 | 81 | 1048.5 |
| 20260903235739 | 82 | 264 | 0.0 | 2.0 | 0.00 | 0.29 | 0.29 | 80 | 1048.3 |
| 20260903235236 | 82 | 223 | 0.0 | 0.0 | 0.00 | 0.29 | 0.29 | 80 | 1048.3 |
| 20260903234735 | 82 | 244 | 1.0 | 2.0 | 0.00 | 0.29 | 0.29 | 79 | 1048.2 |
| 20260903234231 | 83 | 213 | 1.0 | 3.0 | 0.00 | 0.29 | 0.29 | 78 | 1048.3 |
| 20260903233727 | 83 | 227 | 0.0 | 3.0 | 0.00 | 0.29 | 0.29 | 78 | 1048.3 |
| 20260903233223 | 83 | 224 | 2.0 | 3.0 | 0.00 | 0.29 | 0.29 | 78 | 1048.2 |
| 20260903232721 | 83 | 228 | 0.0 | 3.0 | 0.00 | 0.29 | 0.29 | 77 | 1048.3 |
| 20260903232218 | 83 | 228 | 2.0 | 2.0 | 0.00 | 0.29 | 0.29 | 78 | 1048.5 |
| 20260903231716 | 82 | 216 | 1.0 | 2.0 | 0.00 | 0.29 | 0.29 | 79 | 1048.3 |
| 20260903231212 | 82 | 209 | 0.0 | 1.0 | 0.00 | 0.29 | 0.29 | 79 | 1048.5 |
| 20260903230708 | 82 | 219 | 1.0 | 2.0 | 0.00 | 0.29 | 0.29 | 79 | 1048.2 |
| 20260903230208 | 82 | 233 | 1.0 | 2.0 | 0.00 | 0.29 | 0.29 | 78 | 1048.2 |
| 20260903225704 | 83 | 237 | 0.0 | 3.0 | 0.00 | 0.29 | 0.29 | 78 | 1048.2 |
| 20260903225200 | 83 | 224 | 0.0 | 1.0 | 0.00 | 0.29 | 0.29 | 77 | 1048.3 |
| 20260903224655 | 83 | 235 | 1.0 | 2.0 | 0.00 | 0.29 | 0.29 | 76 | 1048.3 |
| 20260903224152 | 83 | 219 | 0.0 | 2.0 | 0.00 | 0.29 | 0.29 | 76 | 1048.4 |
| 20260903223647 | 83 | 225 | 1.0 | 1.0 | 0.00 | 0.29 | 0.29 | 75 | 1048.5 |
| 20260903223146 | 83 | 233 | 0.0 | 1.0 | 0.00 | 0.29 | 0.29 | 75 | 1048.6 |
| 20260903222645 | 83 | 225 | 0.0 | 1.0 | 0.00 | 0.29 | 0.29 | 75 | 1048.3 |
| 20260903222144 | 83 | 175 | 2.0 | 3.0 | 0.00 | 0.29 | 0.29 | 73 | 1048.4 |
| 20260903221640 | 84 | 216 | 3.0 | 6.0 | 0.00 | 0.29 | 0.29 | 73 | 1048.7 |
| 20260903221138 | 84 | 233 | 1.0 | 3.0 | 0.00 | 0.29 | 0.29 | 72 | 1048.6 |
| 20260903220637 | 85 | 241 | 1.0 | 4.0 | 0.00 | 0.29 | 0.29 | 70 | 1048.2 |
| 20260903220132 | 86 | 338 | 2.0 | 8.0 | 0.00 | 0.29 | 0.29 | 69 | 1048.2 |
| 20260903215626 | 86 | 143 | 4.0 | 7.0 | 0.00 | 0.29 | 0.29 | 69 | 1047.8 |
| 20260903215126 | 86 | 167 | 5.0 | 7.0 | 0.00 | 0.29 | 0.29 | 68 | 1048.0 |
| 20260903214624 | 86 | 191 | 3.0 | 6.0 | 0.00 | 0.29 | 0.29 | 69 | 1048.1 |
| 20260903214120 | 86 | 221 | 3.0 | 7.0 | 0.00 | 0.29 | 0.29 | 70 | 1048.0 |
| 20260903213615 | 87 | 166 | 4.0 | 6.0 | 0.00 | 0.29 | 0.29 | 68 | 1048.1 |
| 20260903213111 | 86 | 214 | 2.0 | 4.0 | 0.00 | 0.29 | 0.29 | 69 | 1048.4 |
| 20260903212607 | 86 | 185 | 4.0 | 4.0 | 0.00 | 0.29 | 0.29 | 69 | 1048.2 |
| 20260903212102 | 86 | 305 | 3.0 | 6.0 | 0.00 | 0.29 | 0.29 | 69 | 1048.1 |
| 20260903211556 | 86 | 164 | 2.0 | 6.0 | 0.00 | 0.29 | 0.29 | 70 | 1048.2 |
| 20260903211053 | 86 | 186 | 4.0 | 8.0 | 0.00 | 0.29 | 0.29 | 70 | 1048.2 |
| 20260903210548 | 86 | 260 | 3.0 | 9.0 | 0.00 | 0.29 | 0.29 | 69 | 1048.2 |
| 20260903210044 | 85 | 183 | 6.0 | 8.0 | 0.00 | 0.29 | 0.29 | 70 | 1048.2 |
| 20260903205538 | 85 | 200 | 5.0 | 10.0 | 0.00 | 0.29 | 0.29 | 74 | 1048.4 |
| 20260903205038 | 85 | 159 | 6.0 | 8.0 | 0.00 | 0.29 | 0.29 | 72 | 1048.3 |
| 20260903204534 | 84 | 189 | 1.0 | 10.0 | 0.00 | 0.29 | 0.29 | 73 | 1048.3 |
| 20260903204029 | 84 | 239 | 4.0 | 7.0 | 0.00 | 0.29 | 0.29 | 74 | 1048.2 |
| 20260903203525 | 84 | 214 | 2.0 | 10.0 | 0.00 | 0.29 | 0.29 | 74 | 1048.3 |
| 20260903203024 | 84 | 197 | 2.0 | 9.0 | 0.00 | 0.29 | 0.29 | 77 | 1048.3 |
| 20260903202520 | 83 | 199 | 7.0 | 11.0 | 0.00 | 0.29 | 0.29 | 74 | 1048.3 |
| 20260903202015 | 83 | 233 | 4.0 | 7.0 | 0.00 | 0.29 | 0.29 | 74 | 1048.3 |
| 20260903201510 | 83 | 219 | 8.0 | 10.0 | 0.00 | 0.29 | 0.29 | 75 | 1048.6 |
| 20260903201009 | 83 | 192 | 11.0 | 16.0 | 0.00 | 0.29 | 0.29 | 75 | 1048.5 |
| 20260903200504 | 82 | 229 | 4.0 | 8.0 | 0.00 | 0.29 | 0.29 | 77 | 1048.5 |
| 20260903195958 | 82 | 172 | 3.0 | 10.0 | 0.00 | 0.29 | 0.29 | 77 | 1048.5 |
| 20260903195455 | 82 | 150 | 6.0 | 13.0 | 0.00 | 0.29 | 0.29 | 76 | 1048.4 |
| 20260903194950 | 82 | 241 | 6.0 | 8.0 | 0.00 | 0.29 | 0.29 | 77 | 1048.7 |
| 20260903194445 | 81 | 204 | 4.0 | 8.0 | 0.00 | 0.29 | 0.29 | 78 | 1048.6 |
| 20260903193940 | 81 | 164 | 4.0 | 8.0 | 0.00 | 0.29 | 0.29 | 78 | 1048.9 |
| 20260903193437 | 80 | 241 | 4.0 | 6.0 | 0.00 | 0.29 | 0.29 | 80 | 1048.9 |
| 20260903192931 | 79 | 232 | 3.0 | 9.0 | 0.00 | 0.29 | 0.29 | 80 | 1048.9 |
| 20260903192428 | 79 | 181 | 5.0 | 7.0 | 0.00 | 0.29 | 0.29 | 82 | 1048.9 |
| 20260903191923 | 80 | 184 | 2.0 | 11.0 | 0.00 | 0.29 | 0.29 | 80 | 1049.0 |
| 20260903191420 | 78 | 237 | 1.0 | 8.0 | 0.00 | 0.29 | 0.29 | 82 | 1049.4 |
| 20260903190919 | 78 | 175 | 4.0 | 10.0 | 0.00 | 0.29 | 0.29 | 81 | 1049.4 |
| 20260903190413 | 78 | 264 | 2.0 | 6.0 | 0.00 | 0.29 | 0.29 | 82 | 1049.4 |
| 20260903185913 | 78 | 237 | 2.0 | 7.0 | 0.00 | 0.29 | 0.29 | 81 | 1049.5 |
| 20260903185408 | 78 | 179 | 6.0 | 11.0 | 0.00 | 0.29 | 0.29 | 80 | 1049.7 |
| 20260903184904 | 78 | 239 | 5.0 | 13.0 | 0.00 | 0.29 | 0.29 | 79 | 1049.5 |
| 20260903184401 | 78 | 202 | 5.0 | 8.0 | 0.00 | 0.29 | 0.29 | 78 | 1049.5 |
| 20260903183854 | 79 | 181 | 4.0 | 10.0 | 0.00 | 0.29 | 0.29 | 78 | 1049.3 |
| 20260903183349 | 79 | 164 | 4.0 | 11.0 | 0.00 | 0.29 | 0.29 | 79 | 1049.0 |
| 20260903182849 | 79 | 273 | 1.0 | 8.0 | 0.00 | 0.29 | 0.29 | 78 | 1048.9 |
| 20260903182348 | 79 | 186 | 5.0 | 10.0 | 0.00 | 0.29 | 0.29 | 78 | 1049.5 |
| 20260903181843 | 78 | 177 | 3.0 | 7.0 | 0.00 | 0.29 | 0.29 | 79 | 1049.8 |
| 20260903181337 | 78 | 224 | 1.0 | 4.0 | 0.00 | 0.29 | 0.29 | 79 | 1049.7 |
| 20260903180831 | 78 | 246 | 1.0 | 3.0 | 0.00 | 0.29 | 0.29 | 81 | 1049.6 |
| 20260903180326 | 77 | 333 | 2.0 | 7.0 | 0.00 | 0.29 | 0.29 | 80 | 1049.5 |
| 20260903175825 | 77 | 253 | 2.0 | 8.0 | 0.00 | 0.29 | 0.29 | 82 | 1049.6 |
| 20260903175325 | 77 | 161 | 5.0 | 7.0 | 0.00 | 0.29 | 0.29 | 81 | 1049.4 |
| 20260903174819 | 77 | 341 | 2.0 | 10.0 | 0.00 | 0.29 | 0.29 | 81 | 1049.7 |
| 20260903174315 | 77 | 186 | 2.0 | 10.0 | 0.00 | 0.29 | 0.29 | 81 | 1049.7 |
| 20260903173808 | 77 | 235 | 3.0 | 6.0 | 0.00 | 0.29 | 0.29 | 82 | 1049.7 |
| 20260903173305 | 76 | 160 | 3.0 | 6.0 | 0.00 | 0.29 | 0.29 | 81 | 1050.0 |
| 20260903172801 | 75 | 210 | 2.0 | 6.0 | 0.00 | 0.29 | 0.29 | 84 | 1050.1 |
| 20260903172255 | 75 | 217 | 6.0 | 10.0 | 0.00 | 0.29 | 0.29 | 83 | 1050.5 |
| 20260903171749 | 75 | 176 | 4.0 | 4.0 | 0.00 | 0.29 | 0.29 | 83 | 1050.6 |
| 20260903171246 | 75 | 191 | 2.0 | 6.0 | 0.00 | 0.29 | 0.29 | 84 | 1050.7 |
| 20260903170744 | 74 | 240 | 2.0 | 7.0 | 0.00 | 0.29 | 0.29 | 85 | 1050.5 |
| 20260903170240 | 74 | 197 | 3.0 | 6.0 | 0.00 | 0.29 | 0.29 | 85 | 1050.4 |
| 20260903165738 | 74 | 259 | 1.0 | 7.0 | 0.00 | 0.29 | 0.29 | 86 | 1050.5 |
| 20260903165233 | 73 | 188 | 2.0 | 4.0 | 0.00 | 0.29 | 0.29 | 86 | 1050.5 |
| 20260903164727 | 73 | 134 | 5.0 | 9.0 | 0.00 | 0.29 | 0.29 | 87 | 1050.9 |
| 20260903164224 | 73 | 227 | 1.0 | 9.0 | 0.00 | 0.29 | 0.29 | 89 | 1050.6 |
| 20260903163723 | 73 | 242 | 2.0 | 4.0 | 0.00 | 0.29 | 0.29 | 90 | 1051.0 |
| 20260903163220 | 73 | 189 | 3.0 | 6.0 | 0.00 | 0.29 | 0.29 | 90 | 1051.2 |
| 20260903162715 | 73 | 208 | 5.0 | 8.0 | 0.00 | 0.29 | 0.29 | 90 | 1051.0 |
| 20260903162211 | 73 | 200 | 2.0 | 4.0 | 0.00 | 0.29 | 0.29 | 90 | 1051.3 |
| 20260903161707 | 73 | 189 | 2.0 | 4.0 | 0.00 | 0.29 | 0.29 | 91 | 1051.3 |
| 20260903161202 | 73 | 207 | 4.0 | 6.0 | 0.00 | 0.29 | 0.29 | 90 | 1051.1 |
| 20260903160657 | 73 | 249 | 2.0 | 6.0 | 0.00 | 0.29 | 0.29 | 90 | 1051.2 |
| 20260903160151 | 73 | 205 | 3.0 | 6.0 | 0.00 | 0.29 | 0.29 | 89 | 1051.2 |
| 20260903155650 | 73 | 220 | 5.0 | 7.0 | 0.00 | 0.29 | 0.29 | 88 | 1051.3 |
| 20260903155145 | 73 | 251 | 1.0 | 4.0 | 0.00 | 0.29 | 0.29 | 89 | 1051.4 |
| 20260903154641 | 73 | 211 | 4.0 | 8.0 | 0.00 | 0.29 | 0.29 | 90 | 1051.3 |
| 20260903154137 | 72 | 241 | 1.0 | 7.0 | 0.00 | 0.29 | 0.29 | 91 | 1051.4 |
| 20260903153632 | 72 | 238 | 2.0 | 4.0 | 0.00 | 0.29 | 0.29 | 90 | 1051.5 |
| 20260903153128 | 72 | 217 | 1.0 | 7.0 | 0.00 | 0.29 | 0.29 | 90 | 1051.2 |
| 20260903152624 | 72 | 175 | 2.0 | 4.0 | 0.00 | 0.29 | 0.29 | 89 | 1051.2 |
| 20260903152120 | 72 | 234 | 0.0 | 2.0 | 0.00 | 0.29 | 0.29 | 90 | 1051.4 |
| 20260903151619 | 72 | 225 | 1.0 | 1.0 | 0.00 | 0.29 | 0.29 | 89 | 1051.6 |
| 20260903151114 | 72 | 258 | 0.0 | 1.0 | 0.00 | 0.29 | 0.29 | 92 | 1051.3 |
| 20260903150614 | 72 | 221 | 0.0 | 1.0 | 0.00 | 0.29 | 0.29 | 92 | 1051.5 |
| 20260903150109 | 72 | 231 | 0.0 | 0.0 | 0.00 | 0.29 | 0.29 | 92 | 1051.6 |
| 20260903145609 | 71 | 228 | 0.0 | 1.0 | 0.00 | 0.29 | 0.29 | 92 | 1051.8 |
| 20260903145104 | 71 | 212 | 0.0 | 1.0 | 0.00 | 0.29 | 0.29 | 92 | 1051.8 |
| 20260903144603 | 71 | 71 | 1.0 | 2.0 | 0.00 | 0.29 | 0.29 | 93 | 1051.8 |
| 20260903144059 | 71 | 225 | 0.0 | 0.0 | 0.00 | 0.29 | 0.29 | 93 | 1051.8 |
| 20260903143555 | 71 | 244 | 0.0 | 0.0 | 0.00 | 0.29 | 0.29 | 90 | 1051.7 |
| 20260903143051 | 72 | 20 | 1.0 | 2.0 | 0.00 | 0.29 | 0.29 | 90 | 1051.8 |
| 20260903142546 | 72 | 247 | 1.0 | 1.0 | 0.00 | 0.29 | 0.29 | 90 | 1051.6 |
| 20260903142043 | 72 | 240 | 0.0 | 1.0 | 0.00 | 0.29 | 0.29 | 89 | 1051.3 |
| 20260903141538 | 72 | 229 | 0.0 | 2.0 | 0.00 | 0.29 | 0.29 | 90 | 1050.8 |
| 20260903141033 | 71 | 242 | 3.0 | 8.0 | 0.00 | 0.29 | 0.29 | 90 | 1050.9 |
| 20260903140529 | 71 | 222 | 1.0 | 4.0 | 0.00 | 0.29 | 0.29 | 91 | 1050.7 |
| 20260903140024 | 71 | 224 | 3.0 | 3.0 | 0.00 | 0.29 | 0.29 | 91 | 1050.4 |
| 20260903135520 | 71 | 182 | 1.0 | 3.0 | 0.00 | 0.29 | 0.29 | 93 | 1050.2 |
| 20260903135019 | 71 | 221 | 0.0 | 4.0 | 0.00 | 0.29 | 0.29 | 92 | 1050.4 |
| 20260903134519 | 71 | 244 | 0.0 | 3.0 | 0.00 | 0.29 | 0.29 | 92 | 1050.3 |
| 20260903134015 | 70 | 198 | 1.0 | 3.0 | 0.00 | 0.29 | 0.29 | 93 | 1050.2 |
| 20260903133512 | 70 | 73 | 2.0 | 4.0 | 0.00 | 0.29 | 0.29 | 94 | 1050.3 |
| 20260903133008 | 69 | 210 | 1.0 | 3.0 | 0.00 | 0.29 | 0.29 | 95 | 1050.7 |
| 20260903132503 | 69 | 224 | 0.0 | 2.0 | 0.00 | 0.29 | 0.29 | 95 | 1050.9 |
| 20260903132002 | 69 | 120 | 1.0 | 1.0 | 0.00 | 0.29 | 0.29 | 95 | 1051.2 |
| 20260903131457 | 69 | 217 | 1.0 | 3.0 | 0.00 | 0.29 | 0.29 | 95 | 1051.5 |
| 20260903130956 | 69 | 357 | 1.0 | 2.0 | 0.00 | 0.29 | 0.29 | 96 | 1051.5 |
| 20260903130452 | 69 | 38 | 1.0 | 3.0 | 0.00 | 0.29 | 0.29 | 97 | 1051.0 |
| 20260903125951 | 69 | 195 | 2.0 | 2.0 | 0.00 | 0.29 | 0.29 | 97 | 1051.3 |
| 20260903125451 | 69 | 100 | 1.0 | 2.0 | 0.00 | 0.29 | 0.29 | 97 | 1051.8 |
| 20260903124951 | 69 | 248 | 0.0 | 1.0 | 0.00 | 0.29 | 0.29 | 97 | 1051.9 |
| 20260903124446 | 69 | 213 | 1.0 | 3.0 | 0.00 | 0.29 | 0.29 | 96 | 1051.8 |
| 20260903123945 | 69 | 250 | 1.0 | 1.0 | 0.00 | 0.29 | 0.29 | 97 | 1051.4 |
| 20260903123439 | 69 | 9 | 2.0 | 3.0 | 0.00 | 0.29 | 0.29 | 97 | 1051.3 |
| 20260903122938 | 69 | 186 | 1.0 | 2.0 | 0.00 | 0.29 | 0.29 | 97 | 1051.0 |
| 20260903122433 | 69 | 277 | 2.0 | 4.0 | 0.00 | 0.29 | 0.29 | 98 | 1051.0 |
| 20260903121932 | 69 | 24 | 2.0 | 6.0 | 0.00 | 0.29 | 0.29 | 98 | 1050.9 |
| 20260903121426 | 68 | 80 | 5.0 | 6.0 | 0.00 | 0.29 | 0.29 | 98 | 1051.1 |
| 20260903120923 | 68 | 188 | 2.0 | 4.0 | 0.00 | 0.29 | 0.29 | 98 | 1051.5 |
| 20260903120421 | 68 | 164 | 1.0 | 2.0 | 0.00 | 0.29 | 0.29 | 99 | 1052.4 |
| 20260903115920 | 68 | 286 | 1.0 | 2.0 | 0.00 | 0.29 | 0.29 | 99 | 1051.9 |
| 20260903115414 | 69 | 255 | 0.0 | 0.0 | 0.00 | 0.29 | 0.29 | 98 | 1051.8 |
| 20260903114909 | 69 | 219 | 2.0 | 3.0 | 0.00 | 0.29 | 0.29 | 98 | 1051.7 |
| 20260903114405 | 69 | 215 | 0.0 | 0.0 | 0.07 | 0.29 | 0.29 | 98 | 1051.7 |
| 20260903113901 | 68 | 61 | 3.0 | 6.0 | 0.07 | 0.29 | 0.29 | 98 | 1051.5 |
| 20260903113356 | 69 | 81 | 2.0 | 2.0 | 0.00 | 0.28 | 0.28 | 98 | 1051.7 |
| 20260903112852 | 68 | 216 | 1.0 | 2.0 | 0.35 | 0.28 | 0.28 | 98 | 1052.3 |
| 20260903112347 | 68 | 86 | 3.0 | 3.0 | 0.35 | 0.27 | 0.27 | 98 | 1052.9 |
| 20260903111846 | 69 | 268 | 1.0 | 1.0 | 0.12 | 0.22 | 0.22 | 98 | 1053.5 |
| 20260903111345 | 69 | 261 | 0.0 | 1.0 | 0.00 | 0.20 | 0.20 | 98 | 1053.3 |
| 20260903110842 | 69 | 312 | 2.0 | 3.0 | 0.00 | 0.20 | 0.20 | 98 | 1053.1 |
| 20260903110337 | 69 | 151 | 2.0 | 3.0 | 0.00 | 0.20 | 0.20 | 98 | 1052.4 |
| 20260903105833 | 69 | 220 | 0.0 | 1.0 | 0.00 | 0.20 | 0.20 | 98 | 1053.3 |
| 20260903105332 | 69 | 243 | 0.0 | 2.0 | 0.00 | 0.20 | 0.20 | 98 | 1052.7 |
| 20260903104826 | 69 | 233 | 1.0 | 2.0 | 0.00 | 0.20 | 0.20 | 98 | 1052.7 |
| 20260903104321 | 69 | 231 | 0.0 | 1.0 | 0.00 | 0.20 | 0.20 | 98 | 1052.3 |
| 20260903103818 | 69 | 230 | 0.0 | 1.0 | 0.00 | 0.20 | 0.20 | 97 | 1052.0 |
| 20260903103308 | 69 | 240 | 0.0 | 0.0 | 0.00 | 0.20 | 0.20 | 97 | 1051.7 |
| 20260903102804 | 69 | 28 | 2.0 | 3.0 | 0.07 | 0.20 | 0.20 | 97 | 1051.7 |
| 20260903102258 | 69 | 22 | 2.0 | 3.0 | 0.19 | 0.20 | 0.20 | 97 | 1051.8 |
| 20260903101756 | 69 | 202 | 0.0 | 1.0 | 0.12 | 0.19 | 0.19 | 96 | 1052.3 |
| 20260903101253 | 69 | 98 | 1.0 | 2.0 | 0.05 | 0.17 | 0.17 | 95 | 1052.8 |
| 20260903100748 | 69 | 243 | 0.0 | 2.0 | 0.05 | 0.17 | 0.17 | 95 | 1052.9 |
| 20260903100247 | 70 | 241 | 0.0 | 0.0 | 0.12 | 0.16 | 0.16 | 95 | 1052.4 |
| 20260903095739 | 70 | 271 | 0.0 | 3.0 | 0.50 | 0.16 | 0.16 | 93 | 1052.3 |
| 20260903095234 | 71 | 255 | 2.0 | 3.0 | 0.47 | 0.13 | 0.13 | 91 | 1052.2 |
| 20260903094729 | 73 | 123 | 1.0 | 4.0 | 0.17 | 0.08 | 0.08 | 85 | 1052.7 |
| 20260903094224 | 72 | 296 | 2.0 | 14.0 | 0.00 | 0.05 | 0.05 | 83 | 1052.9 |
| 20260903093720 | 72 | 266 | 2.0 | 3.0 | 0.00 | 0.05 | 0.05 | 89 | 1051.3 |
| 20260903093215 | 70 | 209 | 4.0 | 8.0 | 0.00 | 0.05 | 0.05 | 91 | 1051.1 |
| 20260903092714 | 70 | 240 | 0.0 | 0.0 | 0.00 | 0.05 | 0.05 | 92 | 1050.2 |
| 20260903092209 | 71 | 230 | 0.0 | 0.0 | 0.00 | 0.05 | 0.05 | 90 | 1050.2 |
| 20260903091708 | 71 | 226 | 0.0 | 1.0 | 0.00 | 0.05 | 0.05 | 90 | 1050.2 |
| 20260903091203 | 71 | 208 | 0.0 | 1.0 | 0.00 | 0.05 | 0.05 | 88 | 1050.3 |
| 20260903090658 | 71 | 196 | 0.0 | 2.0 | 0.00 | 0.05 | 0.05 | 91 | 1050.6 |
| 20260903090157 | 71 | 231 | 0.0 | 1.0 | 0.00 | 0.05 | 0.05 | 86 | 1050.3 |
| 20260903085656 | 71 | 315 | 0.0 | 0.0 | 0.07 | 0.05 | 0.05 | 88 | 1050.7 |
| 20260903085151 | 72 | 219 | 2.0 | 4.0 | 0.12 | 0.05 | 0.05 | 84 | 1050.5 |
| 20260903084648 | 72 | 194 | 3.0 | 6.0 | 0.17 | 0.04 | 0.04 | 85 | 1050.4 |
| 20260903084143 | 73 | 210 | 6.0 | 14.0 | 0.19 | 0.03 | 0.03 | 83 | 1050.4 |
| 20260903083639 | 74 | 278 | 6.0 | 10.0 | 0.00 | 0.00 | 0.00 | 82 | 1050.6 |
| 20260903083133 | 74 | 230 | 7.0 | 10.0 | 0.00 | 0.00 | 0.00 | 92 | 1050.4 |
| 20260903082627 | 74 | 229 | 2.0 | 3.0 | 0.00 | 0.00 | 0.00 | 94 | 1050.7 |
| 20260903082123 | 74 | 208 | 1.0 | 3.0 | 0.00 | 0.00 | 0.00 | 94 | 1050.7 |
| 20260903081618 | 74 | 247 | 2.0 | 4.0 | 0.00 | 0.00 | 0.00 | 93 | 1050.3 |
| 20260903081114 | 73 | 272 | 3.0 | 3.0 | 0.00 | 0.00 | 0.00 | 94 | 1050.3 |
| 20260903080610 | 73 | 221 | 1.0 | 3.0 | 0.00 | 0.00 | 0.00 | 94 | 1050.4 |
| 20260903080107 | 73 | 228 | 3.0 | 4.0 | 0.00 | 0.00 | 0.00 | 94 | 1050.4 |
| 20260903075602 | 74 | 225 | 0.0 | 2.0 | 0.00 | 0.00 | 0.00 | 94 | 1050.5 |
| 20260903075056 | 74 | 233 | 1.0 | 1.0 | 0.00 | 0.00 | 0.00 | 93 | 1050.1 |
| 20260903074555 | 74 | 236 | 1.0 | 2.0 | 0.00 | 0.00 | 0.00 | 93 | 1050.2 |
| 20260903074050 | 74 | 232 | 1.0 | 3.0 | 0.00 | 0.00 | 0.00 | 93 | 1050.1 |
| 20260903073546 | 74 | 236 | 1.0 | 2.0 | 0.00 | 0.00 | 0.00 | 94 | 1049.8 |
| 20260903073042 | 74 | 233 | 0.0 | 1.0 | 0.00 | 0.00 | 0.00 | 94 | 1050.1 |
| 20260903072537 | 73 | 229 | 0.0 | 1.0 | 0.00 | 0.00 | 0.00 | 94 | 1049.9 |
| 20260903072033 | 73 | 227 | 0.0 | 0.0 | 0.00 | 0.00 | 0.00 | 94 | 1049.6 |
| 20260903071530 | 73 | 220 | 0.0 | 0.0 | 0.00 | 0.00 | 0.00 | 94 | 1049.4 |
| 20260903071025 | 73 | 226 | 0.0 | 1.0 | 0.00 | 0.00 | 0.00 | 94 | 1049.8 |
| 20260903070524 | 73 | 214 | 0.0 | 1.0 | 0.00 | 0.00 | 0.00 | 94 | 1049.5 |
| 20260903070020 | 73 | 229 | 0.0 | 1.0 | 0.00 | 0.00 | 0.00 | 94 | 1049.7 |
| 20260903065514 | 73 | 229 | 0.0 | 2.0 | 0.00 | 0.00 | 0.00 | 94 | 1049.5 |
| 20260903065013 | 73 | 218 | 0.0 | 2.0 | 0.00 | 0.00 | 0.00 | 94 | 1049.6 |
| 20260903064513 | 73 | 232 | 0.0 | 1.0 | 0.00 | 0.00 | 0.00 | 94 | 1049.6 |
| 20260903064009 | 73 | 224 | 0.0 | 1.0 | 0.00 | 0.00 | 0.00 | 94 | 1049.8 |
| 20260903063504 | 73 | 215 | 0.0 | 2.0 | 0.00 | 0.00 | 0.00 | 94 | 1049.8 |
| 20260903062959 | 73 | 230 | 0.0 | 0.0 | 0.00 | 0.00 | 0.00 | 94 | 1049.8 |
| 20260903062454 | 73 | 224 | 0.0 | 1.0 | 0.00 | 0.00 | 0.00 | 94 | 1049.9 |
| 20260903061950 | 73 | 220 | 0.0 | 0.0 | 0.00 | 0.00 | 0.00 | 94 | 1049.9 |
| 20260903061449 | 73 | 238 | 1.0 | 4.0 | 0.00 | 0.00 | 0.00 | 94 | 1049.8 |
| 20260903060946 | 73 | 219 | 0.0 | 2.0 | 0.00 | 0.00 | 0.00 | 94 | 1050.0 |
| 20260903060440 | 72 | 234 | 0.0 | 1.0 | 0.00 | 0.00 | 0.00 | 94 | 1049.8 |
| 20260903055938 | 73 | 225 | 0.0 | 1.0 | 0.00 | 0.00 | 0.00 | 94 | 1049.8 |
| 20260903055436 | 72 | 236 | 0.0 | 1.0 | 0.00 | 0.00 | 0.00 | 94 | 1050.0 |
| 20260903054931 | 72 | 229 | 0.0 | 0.0 | 0.00 | 0.00 | 0.00 | 94 | 1050.0 |
| 20260903054425 | 72 | 261 | 0.0 | 0.0 | 0.00 | 0.00 | 0.00 | 94 | 1049.9 |
| 20260903053921 | 72 | 252 | 0.0 | 1.0 | 0.00 | 0.00 | 0.00 | 94 | 1049.9 |
| 20260903053416 | 72 | 216 | 0.0 | 2.0 | 0.00 | 0.00 | 0.00 | 93 | 1049.7 |
| 20260903052912 | 72 | 242 | 0.0 | 2.0 | 0.00 | 0.00 | 0.00 | 93 | 1049.8 |